Location: Unspecified
(0.0000°N, 0.0000°E)
Time: 04:56:39
(UTC+00:00)

Tiros 1 despin weight - Visible Passes

Search period start: 30 September 2016 00:00
Search period end: 10 October 2016 00:00
Orbit: 596 x 644 km, 48.2° (Epoch: 29 September)

Date Brightness Start Highest point End Pass type
(mag) Time Alt. Az. Time Alt. Az. Time Alt. Az.
30 Sep ? 19:03:55 10° S 19:06:37 22° SSE 19:06:37 22° SSE visible
01 Oct ? 19:20:11 10° SSW 19:24:06 58° SSE 19:24:06 58° SSE visible
02 Oct ? 19:37:31 10° WSW 19:41:40 42° NW 19:41:40 42° NW visible
03 Oct ? 18:13:22 10° SSW 18:17:31 36° SE 18:21:36 10° ENE visible
03 Oct ? 19:56:15 10° W 19:58:55 16° NW 19:59:16 15° NW visible
04 Oct ? 18:30:09 10° SW 18:34:39 77° NW 18:39:04 10° NE visible
05 Oct ? 04:59:16 10° NNE 05:01:32 14° NE 05:03:50 10° E visible
05 Oct ? 18:48:00 10° WSW 18:51:46 26° NW 18:55:30 10° N visible
06 Oct ? 05:14:31 10° NNW 05:18:43 35° NE 05:22:58 10° ESE visible
08 Oct ? 04:08:27 11° N 04:11:33 21° NE 04:15:02 10° E visible
09 Oct ? 04:26:04 23° NNW 04:28:41 57° NE 04:33:14 10° SE visible
